Latest Coastal Weather Observations for Cape Otway

IDV60701

Issued at 4:11 am EST Friday 3 July 2015 (issued every 10 minutes, with the page automatically refreshed every 10 minutes)

About coastal observations | Map of coastal stations | Coastal observations for VIC | Marine services | Other Formats
Station Details ID: 090015 Name: CAPE OTWAY LIGHTHOUSE Lat: -38.86 Lon: 143.51 Height: 82.0 m
Data from the previous 72 hours. | See also: Recent months at Cape Otway
Date/Time
EST
Temp

°C
Wind Pressure Rain
since 9am
mm
Weather Cloud Vis
km
Sea
Height
m
Swell
Dir
 
Speed
knots
Gust
knots
hPa Trend Height
m
Period
s
Dir
03/04:00am 9.9 SSW 13 18 1027.2 - 0.2 - - - - - - -
03/03:30am 9.7 WSW 10 15 1027.4 - 0.2 - - - - - - -
03/03:00am 9.7 SW 12 16 1027.7 - 0.2 - - - - - - -
03/02:30am 9.9 SW 13 16 1027.7 - 0.2 - - - - - - -
03/02:00am 9.9 SW 15 22 1027.8 - 0.2 - - - - - - -
03/01:30am 9.9 SSW 13 17 1027.7 - 0.2 - - - - - - -
03/01:00am 9.9 SW 14 18 1027.9 - 0.2 - - - - - - -
03/12:30am 9.7 SSW 13 18 1028.3 - 0.2 - - - - - - -
03/12:00am 9.9 SW 12 18 1028.8 - 0.2 - - - - - - -
 
Date/Time
EST
Temp

°C
Wind Pressure Rain
since 9am
mm
Weather Cloud Vis
km
Sea
Height
m
Swell
Dir
 
Speed
knots
Gust
knots
hPa Trend Height
m
Period
s
Dir
02/11:30pm 9.8 WSW 15 20 1028.8 - 0.2 - - - - - - -
02/11:00pm 9.6 SSW 16 21 1028.7 - 0.2 - - - - - - -
02/10:30pm 10.0 SSW 16 23 1028.6 - 0.2 - - - - - - -
02/10:00pm 10.4 SSW 16 23 1028.4 - 0.2 - - - - - - -
02/09:30pm 10.3 SSW 17 23 1028.5 - 0.2 - - - - - - -
02/09:00pm 9.7 SSW 13 19 1028.4 - 0.2 - - - - - - -
02/08:30pm 10.3 WSW 15 19 1028.0 - 0.2 - - - - - - -
02/08:00pm 10.3 WSW 15 20 1027.8 - 0.2 - - - - - - -
02/07:30pm 10.4 SW 19 25 1027.6 - 0.2 - - - - - - -
02/07:00pm 10.4 SW 19 24 1027.2 - 0.2 - - - - - - -
02/06:30pm 10.5 SW 17 23 1027.0 - 0.2 - - - - - - -
02/06:00pm 10.2 SW 16 21 1027.3 - 0.2 - - - - - - -
02/05:30pm 10.2 SW 16 22 1026.7 - 0.2 - - - - - - -
02/05:00pm 10.0 SSW 15 22 1026.1 - 0.2 - - - - - - -
02/04:30pm 10.5 SSW 18 25 1026.1 - 0.2 - - - - - - -
02/04:00pm 10.4 SW 19 26 1025.8 - 0.2 - - - - - - -
02/03:37pm 10.8 SW 18 28 1025.5 - 0.2 - - - - - - -
02/03:30pm 10.6 SSW 18 23 1025.5 - 0.2 - - - - - - -
02/03:00pm 10.3 SSW 19 26 1025.4 - 0.2 - - - - - - -
02/02:43pm 10.5 SSW 18 30 1024.8 - 0.2 - - - - - - -
02/02:30pm 10.5 SSW 16 23 1024.8 - 0.2 - - - - - - -
02/02:00pm 10.3 SSW 22 31 1024.7 - 0.2 - - - - - - -
02/01:43pm 11.0 SSW 21 31 1024.6 - 0.2 - - - - - - -
02/01:30pm 10.7 SSW 22 31 1024.5 - 0.2 - - - - - - -
02/01:20pm 10.6 SSW 20 31 1024.4 - 0.2 - - - - - - -
02/01:00pm 9.8 SW 21 30 1024.4 - 0.2 - - - - - - -
02/12:31pm 10.7 SSW 21 31 1024.1 - 0.2 - - - - - - -
02/12:30pm 10.6 SSW 22 30 1024.1 - 0.2 - - - - - - -
02/12:03pm 9.4 SW 22 32 1024.3 - 0.2 - - - - - - -
02/12:00pm 8.8 SW 24 32 1024.4 - 0.2 - - - - - - -
02/11:48am 10.3 SSW 20 33 1023.9 - 0.0 - - - - - - -
02/11:44am 9.8 SSW 20 28 1023.9 - 0.0 - - - - - - -
02/11:34am 9.8 SW 18 34 1023.8 - 0.0 - - - - - - -
02/11:30am 9.7 SW 18 22 1023.9 - 0.0 - - - - - - -
02/11:25am 9.7 SW 19 24 1024.0 - 0.0 - - - - - - -
02/11:00am 9.0 SSW 26 36 1023.8 - 0.0 - - - - - - -
02/10:59am 9.0 SSW 26 36 1023.8 - 0.0 - - - - - - -
02/10:55am 8.9 SSW 25 37 1023.6 - 0.0 - - - - - - -
02/10:33am 9.6 SW 23 33 1023.1 - 0.0 - - - - - - -
02/10:30am 9.7 SW 23 32 1023.2 - 0.0 - - - - - - -
02/10:05am 8.1 SSW 21 43 1023.3 - 0.0 - - - - - - -
02/10:04am 7.7 SSW 20 43 1023.3 - 0.0 - - - - - - -
02/10:00am 7.7 SSW 33 43 1023.0 - 0.0 - - - - - - -
02/09:52am 8.8 SSW 31 41 1022.5 - 0.0 - - - - - - -
02/09:47am 9.1 SSW 32 41 1022.3 - 0.0 - - - - - - -
02/09:30am 9.9 SW 30 41 1021.8 - 0.0 - - - - - - -
02/09:00am 9.4 SW 34 45 1021.2 - 10.4 - - - - - - -
02/08:30am 9.7 SW 35 45 1020.2 - 10.2 - - - - - - -
02/08:00am 8.0 SW 39 54 1019.7 - 10.2 - - - - - - -
02/07:53am 8.6 SW 37 50 1019.7 - 10.2 - - - - - - -
02/07:35am 8.3 W 22 55 1019.5 - 10.0 - - - - - - -
02/07:34am 8.3 W 22 55 1019.5 - 10.0 - - - - - - -
02/07:30am 7.9 WSW 32 55 1019.5 - 10.0 - - - - - - -
02/07:00am 8.7 WSW 33 48 1018.8 - 8.6 - - - - - - -
02/06:49am 10.5 WSW 31 52 1017.8 - 8.2 - - - - - - -
02/06:30am 10.5 WSW 28 41 1017.8 - 8.2 - - - - - - -
02/06:00am 10.2 W 26 36 1017.7 - 8.2 - - - - - - -
02/05:30am 11.0 W 27 38 1017.3 - 8.2 - - - - - - -
02/05:00am 11.0 WSW 23 33 1017.5 - 8.2 - - - - - - -
02/04:30am 10.4 W 23 33 1017.2 - 8.0 - - - - - - -
02/04:01am 11.5 W 24 34 1017.4 - 7.6 - - - - - - -
02/04:00am 11.5 W 25 34 1017.4 - 7.6 - - - - - - -
02/03:30am 11.2 W 22 30 1017.8 - 7.6 - - - - - - -
02/03:10am 11.2 W 23 33 1017.8 - 7.6 - - - - - - -
02/03:00am 11.1 W 24 32 1017.9 - 7.6 - - - - - - -
02/02:34am 11.0 W 23 33 1017.8 - 7.6 - - - - - - -
02/02:30am 11.0 W 23 32 1017.8 - 7.6 - - - - - - -
02/02:00am 11.1 WSW 22 32 1017.5 - 7.6 - - - - - - -
02/01:30am 11.5 WSW 22 32 1017.4 - 7.6 - - - - - - -
02/01:15am 11.3 WSW 20 32 1017.3 - 7.6 - - - - - - -
02/01:12am 11.4 WSW 20 26 1017.4 - 7.4 - - - - - - -
02/01:00am 11.6 WNW 19 28 1017.4 - 7.2 - - - - - - -
02/12:30am 11.0 WNW 19 26 1017.3 - 6.8 - - - - - - -
02/12:05am 11.4 W 24 35 1017.5 - 6.0 - - - - - - -
02/12:00am 11.2 WNW 23 31 1017.6 - 4.8 - - - - - - -
 
Date/Time
EST
Temp

°C
Wind Pressure Rain
since 9am
mm
Weather Cloud Vis
km
Sea
Height
m
Swell
Dir
 
Speed
knots
Gust
knots
hPa Trend Height
m
Period
s
Dir
01/11:30pm 11.9 WNW 20 33 1016.6 - 1.2 - - - - - - -
01/11:00pm 12.0 WNW 21 35 1016.7 - 0.8 - - - - - - -
01/10:30pm 12.1 NW 21 33 1017.1 - 0.4 - - - - - - -
01/10:00pm 12.2 NW 20 30 1017.5 - 0.4 - - - - - - -
01/09:30pm 12.2 NW 21 31 1017.7 - 0.4 - - - - - - -
01/09:00pm 12.0 NW 20 32 1018.1 - 0.4 - - - - - - -
01/08:31pm 12.1 NW 19 30 1018.2 - 0.4 - - - - - - -
01/08:30pm 12.1 NW 19 27 1018.2 - 0.4 - - - - - - -
01/08:00pm 12.1 NW 20 32 1018.5 - 0.4 - - - - - - -
01/07:37pm 11.9 NW 17 27 1018.8 - 0.4 - - - - - - -
01/07:30pm 12.0 NW 19 27 1018.8 - 0.4 - - - - - - -
01/07:00pm 11.8 NW 17 31 1018.9 - 0.2 - - - - - - -
01/06:53pm 11.8 NW 16 26 1018.9 - 0.2 - - - - - - -
01/06:30pm 11.4 NW 15 24 1018.9 - 0.2 - - - - - - -
01/06:02pm 11.5 NW 18 28 1019.3 - 0.2 - - - - - - -
01/06:00pm 11.6 NW 18 27 1019.4 - 0.2 - - - - - - -
01/05:40pm 11.6 NW 18 29 1019.3 - 0.2 - - - - - - -
01/05:30pm 11.6 NW 18 27 1019.4 - 0.2 - - - - - - -
01/05:00pm 12.5 NW 15 25 1019.5 - 0.0 - - - - - - -
01/04:30pm 12.6 NW 18 31 1019.8 - 0.0 - - - - - - -
01/04:11pm 12.7 NW 18 29 1020.0 - 0.0 - - - - - - -
01/04:00pm 12.6 NW 14 23 1020.0 - 0.0 - - - - - - -
01/03:30pm 12.8 NW 15 24 1020.4 - 0.0 - - - - - - -
01/03:00pm 13.0 NW 14 23 1020.7 - 0.0 - - - - - - -
01/02:30pm 13.4 NW 15 23 1020.7 - 0.0 - - - - - - -
01/02:00pm 12.9 NW 15 23 1021.1 - 0.0 - - - - - - -
01/01:30pm 12.7 NW 14 21 1021.9 - 0.0 - - - - - - -
01/01:02pm 12.2 NW 15 25 1022.6 - 0.0 - - - - - - -
01/01:00pm 12.2 NW 14 20 1022.6 - 0.0 - - - - - - -
01/12:30pm 11.8 NW 14 22 1023.2 - 0.0 - - - - - - -
01/12:03pm 12.2 NW 15 25 1023.6 - 0.0 - - - - - - -
01/12:00pm 12.2 NW 14 21 1023.7 - 0.0 - - - - - - -
01/11:30am 12.5 NW 12 19 1024.1 - 0.0 - - - - - - -
01/11:00am 12.1 NW 12 19 1024.4 - 0.0 - - - - - - -
01/10:30am 11.6 NW 14 22 1025.0 - 0.0 - - - - - - -
01/10:00am 11.2 NW 11 17 1025.3 - 0.0 - - - - - - -
01/09:30am 10.8 NW 11 17 1025.6 - 0.0 - - - - - - -
01/09:00am 10.6 NNW 10 16 1025.9 - 2.2 - - - - - - -
01/08:30am 10.1 NW 10 18 1025.6 - 2.2 - - - - - - -
01/08:00am 9.3 NNW 10 15 1025.6 - 2.2 - - - - - - -
01/07:30am 9.7 NW 8 14 1025.8 - 2.2 - - - - - - -
01/07:00am 9.2 NNW 9 12 1025.6 - 2.2 - - - - - - -
01/06:30am 9.2 NNW 11 16 1025.5 - 2.2 - - - - - - -
01/06:00am 10.1 NW 11 17 1025.9 - 2.2 - - - - - - -
01/05:30am 10.1 NW 11 17 1025.7 - 2.2 - - - - - - -
01/05:00am 10.1 NW 13 20 1025.7 - 2.2 - - - - - - -
01/04:30am 9.1 NNW 8 14 1026.1 - 2.2 - - - - - - -
01/04:00am 8.8 NNW 10 14 1026.2 - 2.2 - - - - - - -
01/03:30am 8.8 NNW 9 12 1026.5 - 2.2 - - - - - - -
01/03:00am 9.1 NNW 10 14 1026.9 - 2.2 - - - - - - -
01/02:30am 8.7 NNW 9 12 1026.6 - 2.2 - - - - - - -
01/02:00am 8.7 NNW 8 10 1026.8 - 2.2 - - - - - - -
01/01:30am 8.6 NNW 7 9 1027.0 - 2.2 - - - - - - -
01/01:00am 8.9 NNW 8 11 1027.1 - 2.2 - - - - - - -
01/12:30am 9.1 NNW 9 12 1027.6 - 2.2 - - - - - - -
01/12:00am 9.1 NNW 9 11 1027.9 - 2.2 - - - - - - -
 
Date/Time
EST
Temp

°C
Wind Pressure Rain
since 9am
mm
Weather Cloud Vis
km
Sea
Height
m
Swell
Dir
 
Speed
knots
Gust
knots
hPa Trend Height
m
Period
s
Dir
30/11:30pm 9.1 NNW 8 10 1027.8 - 2.2 - - - - - - -
30/11:00pm 9.1 NNW 7 9 1027.7 - 2.2 - - - - - - -
30/10:30pm 9.4 NNW 7 9 1027.9 - 2.2 - - - - - - -
30/10:00pm 9.7 NNW 7 10 1028.1 - 2.2 - - - - - - -
30/09:30pm 9.9 NNW 9 13 1028.0 - 1.8 - - - - - - -
30/09:00pm 10.1 NNW 6 10 1028.2 - 1.8 - - - - - - -
30/08:30pm 10.5 W 8 14 1028.1 - 1.8 - - - - - - -
30/08:00pm 10.2 WNW 6 9 1028.0 - 1.8 - - - - - - -
30/07:30pm 10.6 W 6 10 1027.9 - 1.6 - - - - - - -
30/07:00pm 10.3 SSW 6 8 1027.7 - 1.6 - - - - - - -
30/06:30pm 10.4 WSW 13 18 1027.6 - 1.6 - - - - - - -
30/06:00pm 10.3 W 5 8 1027.7 - 1.6 - - - - - - -
30/05:30pm 10.4 W 8 11 1027.4 - 1.4 - - - - - - -
30/05:00pm 10.5 W 9 14 1027.3 - 1.4 - - - - - - -
30/04:30pm 10.9 W 7 10 1027.2 - 1.4 - - - - - - -
30/04:00pm 10.5 WSW 10 14 1027.0 - 1.4 - - - - - - -
30/03:30pm 10.9 NW 6 8 1026.9 - 1.2 - - - - - - -
30/03:00pm 10.7 WNW 9 12 1027.1 - 1.0 - - - - - - -
30/02:30pm 10.7 W 9 13 1027.0 - 1.0 - - - - - - -
30/02:00pm 10.4 WNW 8 11 1027.2 - 0.8 - - - - - - -
30/01:30pm 10.4 WNW 10 15 1027.2 - 0.6 - - - - - - -
30/01:00pm 10.5 WNW 9 13 1027.5 - 0.4 - - - - - - -
30/12:30pm 10.5 WNW 11 15 1027.7 - 0.0 - - - - - - -
30/12:00pm 10.8 WNW 10 16 1028.2 - 0.0 - - - - - - -
30/11:30am 11.6 WNW 9 13 1028.4 - 0.0 - - - - - - -
30/11:00am 11.9 WNW 10 15 1028.6 - 0.0 - - - - - - -
30/10:30am 12.2 NW 9 13 1028.7 - 0.0 - - - - - - -
30/10:00am 12.0 NW 9 12 1028.7 - 0.0 - - - - - - -
30/09:30am 12.1 NW 9 13 1028.8 - 0.0 - - - - - - -
30/09:00am 10.5 NNW 7 10 1028.8 - 0.0 - - - - - - -
30/08:30am 10.5 NNW 7 9 1028.6 - 0.0 - - - - - - -
30/08:00am 10.5 N 8 10 1028.4 - 0.0 - - - - - - -
30/07:30am 10.6 N 9 12 1028.1 - 0.0 - - - - - - -
30/07:00am 10.6 N 7 10 1028.0 - 0.0 - - - - - - -
30/06:30am 10.6 N 7 9 1027.9 - 0.0 - - - - - - -
30/06:00am 10.6 N 7 9 1028.0 - 0.0 - - - - - - -
30/05:30am 10.7 NNW 7 9 1027.7 - 0.0 - - - - - - -
30/05:00am 10.5 N 6 8 1027.6 - 0.0 - - - - - - -
30/04:30am 10.4 NNW 6 8 1027.7 - 0.0 - - - - - - -

Other Formats:

Comma delimited format used in spreadsheet applications
http://www.bom.gov.au/fwo/IDV60701/IDV60701.94842.axf

JavaScript Object Notation format (JSON) in row-major order
http://www.bom.gov.au/fwo/IDV60701/IDV60701.94842.json